Location: Unspecified
(36.9193°S, 174.7252°E)
Time: 02:07:59
(UTC+12:00)

Envisat - Visible Passes

Search period start: 21 September 2018 00:00
Search period end: 01 October 2018 01:00
Orbit: 764 x 766 km, 98.2° (Epoch: 20 September)

Date Brightness Start Highest point End Pass type
(mag) Time Alt. Az. Time Alt. Az. Time Alt. Az.
21 Sep 3.7 19:28:35 10° SE 19:33:06 30° E 19:37:33 10° NNE visible
21 Sep 4.8 21:07:38 10° S 21:11:59 28° WSW 21:16:18 10° NW visible
22 Sep 4.6 18:53:46 10° ESE 18:56:03 13° E 18:58:20 10° ENE visible
22 Sep 3.3 20:30:22 10° S 20:35:28 64° WSW 20:40:31 10° NNW visible
23 Sep 3.0 19:53:42 10° SSE 19:58:45 55° E 20:03:45 10° N visible
23 Sep 5.6 21:34:07 10° SSW 21:37:16 17° WSW 21:40:24 10° WNW visible
24 Sep 4.0 19:17:44 10° SE 19:21:51 24° E 19:25:55 10° NNE visible
24 Sep 4.4 20:56:14 10° S 21:00:54 36° WSW 21:05:31 10° NW visible
25 Sep 3.0 20:19:09 10° S 20:24:19 82° WSW 20:29:26 10° NNW visible
26 Sep 3.3 19:42:39 10° SSE 19:47:33 43° E 19:52:23 10° N visible
26 Sep 5.3 21:22:28 10° SSW 21:26:13 21° WSW 21:29:57 10° WNW visible
27 Sep 4.3 19:07:01 10° SE 19:10:35 19° E 19:14:06 10° NE visible
27 Sep 4.0 20:44:53 10° S 20:49:47 45° WSW 20:54:38 10° NW visible
28 Sep 2.9 20:07:59 10° SSE 20:13:09 79° ENE 20:18:15 10° N visible
28 Sep 6.0 21:49:38 10° SW 21:51:26 12° WSW 21:53:14 10° W visible
29 Sep 3.6 19:31:41 10° SSE 19:36:20 33° E 19:40:55 10° NNE visible
29 Sep 5.0 21:10:57 10° SSW 21:15:09 26° WSW 21:19:20 10° WNW visible
30 Sep 4.5 19:56:34 10° ESE 19:59:18 14° E 20:02:01 10° NE visible
30 Sep 3.5 21:33:36 10° S 21:38:40 58° WSW 21:43:39 10° NNW visible
